Location: *
(51.1248°S, 108.4023°W)
Time: 05:06:08
(UTC+00:00)

H-2A R/B - Pass Details

Date: 15 June 2021
Orbit: 527 x 652 km, 98.3° (Epoch: 31 July)

Event Time Altitude Azimuth Distance (km) Brightness Sun altitude
Rises 12:57:56 0° 20° (NNE) 2,674 6.3 -20.4°
Reaches altitude 10° 13:00:01 10° 21° (NNE) 1,792 5.3 -20.1°
Maximum altitude 13:03:52 79° 106° (ESE) 559 2.3 -19.5°
Enters shadow 13:06:19 22° 191° (S) 1,224 3.8 -19.2°
